Regional Weather Roundup
Issued by NWS

Home | Current Version | Previous Version | Text Only | Print | Product List | Glossary Off
Versions: 1 2 3 4 5 6 7 8 9 10 11 12 13 14 15 16 17 18 19 20 21 22 23 24 25 26 27 28 29 30 31 32 33 34 35 36 37 38 39 40 41 42 43 44 45 46 47 48 49 50

616
ASUS45 KABQ 191101
RWRNM
NEW MEXICO REGIONAL WEATHER ROUNDUP
NATIONAL WEATHER SERVICE ALBUQUERQUE NM
400 AM MST FRI JAN 19 2018

NOTE: "FAIR" MEANS FEW OR NO CLOUDS BELOW 12,000 FEET AGL WITH NO
       SIGNIFICANT WEATHER OR OBSTRUCTIONS TO VISION.

      THIS PRODUCT IS RELEASED AS TWO VERSIONS.  ONE VERSION NEAR
      THE TOP OF THE HOUR CONTAINING PRELIMINARY DATA FROM ALBUQUERQUE
      AND OTHER STATIONS.  A FINAL VERSION WITH ADDITIONAL DATA IS
      ISSUED ABOUT 10 MINUTES AFTER THE HOUR.

NMZ501-503-504-510>518-191200-
NORTHWEST PLATEAU/NORTHCENTRAL MOUNTAINS

CITY           SKY/WX    TMP DP  RH WIND       PRES   REMARKS
FARMINGTON     FAIR      23  15  71 NE3       30.16S
LOS ALAMOS     FAIR      33   8  35 CALM      30.14S
SANTA FE       FAIR      31  14  49 N10       30.11F WCI  22
TAOS           FAIR      15   3  59 N5        30.16F WCI   8
ANGEL FIRE     FAIR       4  -1  82 CALM      30.16F

$$
NMZ402-403-502-505>509-191200-
WESTCENTRAL MOUNTAINS/SOUTHWEST MOUNTAINS

CITY           SKY/WX    TMP DP  RH WIND       PRES   REMARKS
GALLUP         FAIR      16   9  74 E6        30.17F WCI   7
GRANTS         FAIR      15   6  65 NW7       30.20S WCI   6
SILVER CITY    FAIR      29  13  52 N7        30.16S WCI  22

$$
NMZ407-409-411-412-191200-
SOUTHERN DESERTS

CITY           SKY/WX    TMP DP  RH WIND       PRES   REMARKS
DEMING         FAIR      20   6  55 CALM      30.16S
LAS CRUCES     FAIR      26   9  49 CALM      30.16S
HOLLOMAN AFB   FAIR      21   5  49 E6        30.18S WCI  14
ALAMOGORDO     FAIR      23   5  46 CALM      30.16F
T OR C         FAIR      30   8  39 W7        30.14F WCI  23

$$
NMZ519>523-191200-
CENTRAL VALLEYS/CENTRAL HIGHLANDS

CITY           SKY/WX    TMP DP  RH WIND       PRES   REMARKS
ALBUQUERQUE    MOCLDY    30  10  43 SE6       30.14F WCI  24
MORIARTY ARPT  FAIR      18   7  61 CALM      30.13S
CLINES CORNERS FAIR      30  13  49 NW23      30.07F WCI  17
BELEN          FAIR      25   8  49 CALM      30.15F
SOCORRO        FAIR      24   8  49 NW3       30.16S

$$
NMZ524>526-539-540-191200-
SOUTHCENTRAL MOUNTAINS

CITY           SKY/WX    TMP DP  RH WIND       PRES   REMARKS
RUIDOSO        FAIR      36   5  27 W12       30.13F WCI  27

$$
NMZ527>531-191200-
NORTHEAST HIGHLANDS/NORTHEAST PLAINS

CITY           SKY/WX    TMP DP  RH WIND       PRES   REMARKS
LAS VEGAS      FAIR      39   5  24 NE6       30.01F WCI  35
RATON          FAIR      25   8  48 NE8       29.98F WCI  16
CLAYTON        FAIR      43   2  18 W8        29.91F

$$
NMZ532>537-191200-
EASTCENTRAL PLAINS

CITY           SKY/WX    TMP DP  RH WIND       PRES   REMARKS
TUCUMCARI      FAIR      32  13  45 SW10      29.94F WCI  24
CANNON AFB     FAIR      33  12  41 W15       30.01F WCI  23
CLOVIS AIRPORT FAIR      35  13  40 W16       30.00F WCI  25

$$
NMZ028-029-538-191200-
SOUTHEAST PLAINS

CITY           SKY/WX    TMP DP  RH WIND       PRES   REMARKS
ROSWELL        FAIR      22   8  55 N5        30.05F WCI  16
ARTESIA        FAIR      27  12  54 SW10      30.06F WCI  17
CARLSBAD       FAIR      17   9  70 CALM      30.06F
HOBBS          FAIR      25  14  63 SW7       30.06F WCI  17


$$




USA.gov is the U.S. government's official web portal to all federal, state and local government web resources and services.